sat.trackr.live / text

‹ back to catalog

STARLINK-33702

NORAD 63591 · 2025-076Y

PAYLOAD ACTIVE UNKNOWN

§ Identity

Operator
Country
US
Launch date
2025-04-14
Launch site
AFETR
Launch vehicle
Mass (kg)
RCS (m²)

Purposes: comms

External: N2YO · Heavens-Above · Gunter

§ Orbital elements

Epoch: 2026-09-19T04:06:17.110368Z

Period
94.27 min
Inclination
43.0011°
Eccentricity
0.0001165
Mean motion
15.27582465 rev/d
Perigee alt
482.2 km
Apogee alt
483.8 km
Semi-major
6,861.2 km
B*
2.2717e-4
RAAN
308.7687°
Arg perigee
273.2017°
Mean anomaly
86.8701°
Rev number
8,142

§ Raw data

STARLINK-337021 63591U 25076Y   26262.17103137  .00005995  00000+0  22717-3 0  99942 63591  43.0011 308.7687 0001165 273.2017  86.8701 15.27582465 81429

JSON: /api/v1/satellites/63591 · /tle

For live sub-satellite position, see the globe view (requires WebGL).

§ Visibility from observer

Set your observer location to see the next 7 days of passes ≥ 10°. The values pass through the URL so the page stays shareable.

No JS? Fill the form by hand. The geolocation button needs JavaScript.